Location: Kellogg
(38.0159°N, 90.0546°W)
Time: 15:40:29
(UTC+00:00)

Transit 2A - Pass Details

Date: 18 September 2024
Orbit: 590 x 960 km, 66.7° (Epoch: 07 October)

Event Time Altitude Azimuth Distance (km) Brightness Sun altitude
Rises 09:54:10 0° 321° (NW) 3,595 9.3 -22.1°
Enters shadow 09:55:38 - 317° (NW) 3,085 8.9 -21.9°
Reaches altitude 10° 09:57:03 10° 312° (NW) 2,610 - -21.6°
Maximum altitude 10:02:14 30° 253° (WSW) 1,505 - -20.6°
Drops below altitude 10° 10:07:03 10° 194° (SSW) 2,405 - -19.7°
Exits shadow 10:09:07 - 185° (S) 3,091 8.9 -19.4°
Sets 10:09:37 0° 183° (S) 3,269 9.1 -19.3°
